Regional Weather Roundup
Issued by NWS Newport/Morehead, NC

Current Version | Previous Version | Graphics & Text | Print | Product List | Glossary Off
Versions: 1 2 3 4 5 6 7 8 9 10 11 12 13 14 15 16 17 18 19 20 21 22 23 24 25 26 27 28 29 30 31 32 33 34 35 36 37 38 39 40 41 42 43 44 45 46 47 48 49 50

000
ASUS42 KMHX 190810
RWRMHX
WEATHER ROUNDUP FOR EASTERN NORTH CAROLINA
NATIONAL WEATHER SERVICE NEWPORT/MOREHEAD CITY NC
300 AM EST FRI DEC 19 2014

NOTE: "FAIR" INDICATES FEW OR NO CLOUDS BELOW 12,000 FEET
WITH NO SIGNIFICANT WEATHER AND/OR OBSTRUCTIONS TO VISIBILITY

NCZ015>017-031-032-045>047-102-103-190900-
NORTH COAST

CITY           SKY/WX    TMP DP  RH WIND       PRES   REMARKS
EDENTON          N/A     35  32  91 CALM      30.10F
ELIZABETH CITY PTCLDY    41  33  73 N6        30.11S
KITTY HAWK     PTSUNNY   42  35  75 N3        30.09S
MANTEO         MOCLDY    42  37  84 CALM      30.10S

$$

NCZ045>047-081-094-103-104-190900-
CENTRAL COAST

CITY           SKY/WX    TMP DP  RH WIND       PRES   REMARKS
FRISCO         PTCLDY    36  35  96 CALM      30.08F
SWANQUARTER      N/A     37 N/A N/A NW2       30.06S

$$

NCZ095-097-098-100-101-190900-
SOUTHERN COAST

CITY           SKY/WX    TMP DP  RH WIND       PRES   REMARKS
BEAUFORT       PTCLDY    37  34  89 CALM      30.09F
CEDAR ISLAND     N/A     37 N/A N/A W1        30.12S
JACKSONVILLE   PTCLDY    34  33  96 CALM      30.10F
PINEY ISLAND   SUNNY     45  33  63 W3        30.09F
WILMINGTON     PTCLDY    35  33  92 CALM      30.09F


$$

NCZ011>013-027>030-043-044-078>080-089-090>093-098-190900-
COASTAL PLAIN

CITY           SKY/WX    TMP DP  RH WIND       PRES   REMARKS
AHOSKIE        CLEAR     30  29  94 CALM      30.11F
CLINTON        CLOUDY    37  36  95 CALM      30.12R
ELIZABETHTOWN  CLEAR     35  33  90 CALM      30.10R
GOLDSBORO      CLOUDY    39  38  98 CALM      30.08F
GREENVILLE     MOCLDY    34  34 100 CALM      30.11F
HAVELOCK       CLEAR     36  32  85 CALM      30.11S
KENANSVILLE    MOCLDY    34  33  96 CALM      30.11S
KINSTON        CLOUDY    37  34  92 CALM      30.11S
NEW BERN       CLEAR     33  30  88 CALM      30.11S FOG
RICHLANDS      CLEAR     34  30  86 CALM      30.11R
ROCKY MOUNT    CLOUDY    36  34  92 CALM      30.11S
WASHINGTON     CLOUDY    35  33  93 CALM      30.10F
WHITEVILLE     CLEAR     35  33  90 CALM      30.10R

$$

AMZ130-135-150-152-154-156-158-170-250-252-270-ANZ085-086-088-633-658-670-190900-
MARINE OBSERVATIONS

STATION/POSITION TIME  TEMP    WIND        PRES    WAVE   SWELL
                       AIR SEA DIR/SP/G            HT/PER HT/PER
                 (UTC) (F)     (DEG/KT/KT) (MB)    (FT/S) (FT/S)
CHESAPEAKE LIGHT 0700   40     350/ 11/ 12 1020.0
64 E VA BEACH    0800   44 54  310/ 10/ 14 1018.5    2/ 5   2/ 5
DUCK             0800   43 47  330/  7/  8 1018.3
2 E DUCK         0800      47                N/A     2/ 6
10 NE DUCK       0800      51                N/A     2/ 5
OREGON INLET     0800   44 51  270/  4/  6 1019.1
13E OREGON INLT  0800      53                N/A     3/ 6
HATTERAS CG      0800   46 54  320/  3/  5 1019.0
DIAMOND BUOY     0800   47                 1019.2    3/ 8
17 S OCRACOKE    NOT AVBL
CAPE LOOKOUT     0700   48     330/  1/  1 1018.9
BEAUFORT LAB     0800   45 53  100/  1/  2 1017.6
30 SE NEW RIVER  0800   53 62  320/  4/  6 1019.1    1/10   2/10
5 SE WRIGHTSVLE  NOT AVBL
225 S CAPE HAT   0658   69 72  310/  8/ 10 1017.2    3/10   2/10
41 SE CHARLESTON 0800   60 72  320/  6/ 10 1018.6    2/ 9   2/ 9

$$


USA.gov is the U.S. government's official web portal to all federal, state and local government web resources and services.